Weather History for Truth Or Consequences, NM

Change the Weather History Date:

Thursday, April 10, 2014

  Actual Average Record
Temperature  
Mean Temperature 72 °F -  
Max Temperature 84 °F - 84 °F (2002)
Min Temperature 59 °F - 34 °F (1999)
Degree Days  
Heating Degree Days 0    
Month to date heating degree days  
Since 1 July heating degree days  
Cooling Degree Days 6    
Month to date cooling degree days  
Year to date cooling degree days  
Growing Degree Days 22 (Base 50)    
Moisture  
Dew Point -4 °F    
Average Humidity 6    
Maximum Humidity 11    
Minimum Humidity 4    
Precipitation  
Precipitation 0.00 in - 0.70 in (2004)
Month to date precipitation  
Year to date precipitation  
Sea Level Pressure  
Sea Level Pressure 29.84 in    
Wind  
Wind Speed 9 mph (West)    
Max Wind Speed 18 mph    
Max Gust Speed 20 mph    
Visibility 10 miles    
Events      
T = Trace of Precipitation, MM = Missing Value Source: NWS Daily Summary

Daily Weather History Graph

Daily Weather History Graph

Search for Another Location

Airport:

Trip Planner

Search our weather history database for the weather conditions in past years. The results will help you decide how hot, cold, wet, or windy it might be!

Date:

Astronomy

Apr. 10, 2014 Rise Set
Actual Time 6:45 AM MDT 7:36 PM MDT
Civil Twilight 6:19 AM MDT 8:01 PM MDT
Nautical Twilight 5:50 AM MDT 8:31 PM MDT
Astronomical Twilight 5:19 AM MDT 9:01 PM MDT
Moon 3:34 PM MDT (4/10) 3:56 AM MDT (4/10)
Length of Visible Light 13h 41m
Length of Day
12h 50m
Waxing Gibbous, 80% of the Moon is Illuminated
Apr 10
Waxing Gibbous
Apr 15
Full
Apr 22
Last Quarter
Apr 29
New
May 6
First Quarter

Hourly Weather History & Observations

Time (MDT) Temp. Dew Point Humidity Pressure Visibility Wind Dir Wind Speed Gust Speed Precip Events Conditions
12:53 AM 66.0 °F -0.0 °F 7% 29.85 in 10.0 mi WNW 6.9 mph - N/A   Clear
1:53 AM 64.0 °F 1.0 °F 8% 29.85 in 10.0 mi WNW 6.9 mph - N/A   Clear
2:53 AM 60.1 °F 1.9 °F 10% 29.86 in 10.0 mi SW 4.6 mph - N/A   Clear
3:53 AM 62.1 °F 3.0 °F 9% 29.84 in 10.0 mi West 8.1 mph - N/A   Clear
4:53 AM 63.0 °F 3.0 °F 9% 29.84 in 10.0 mi NW 10.4 mph - N/A   Clear
5:53 AM 61.0 °F 3.9 °F 10% 29.86 in 10.0 mi NW 12.7 mph - N/A   Clear
6:53 AM 59.0 °F 3.9 °F 11% 29.89 in 10.0 mi WNW 13.8 mph - N/A   Clear
7:53 AM 60.1 °F 5.0 °F 11% 29.92 in 10.0 mi WNW 16.1 mph - N/A   Clear
8:53 AM 61.0 °F 6.1 °F 11% 29.95 in 10.0 mi WNW 11.5 mph - N/A   Clear
9:53 AM 68.0 °F 5.0 °F 8% 29.96 in 10.0 mi NW 10.4 mph - N/A   Clear
10:53 AM 72.0 °F -0.0 °F 6% 29.94 in 10.0 mi NW 11.5 mph - N/A   Clear
11:53 AM 75.9 °F -6.0 °F 4% 29.92 in 10.0 mi NW 9.2 mph - N/A   Clear
12:53 PM 79.0 °F -9.9 °F 4% 29.87 in 10.0 mi SW 8.1 mph 17.3 mph N/A   Clear
1:53 PM 81.0 °F -6.0 °F 4% 29.84 in 10.0 mi South 13.8 mph 19.6 mph N/A   Clear
2:53 PM 82.0 °F -7.1 °F 4% 29.82 in 10.0 mi South 10.4 mph - N/A   Clear
3:53 PM 84.0 °F -9.9 °F 4% 29.76 in 10.0 mi South 13.8 mph - N/A   Clear
4:53 PM 84.0 °F -13.0 °F 4% 29.73 in 10.0 mi SSW 13.8 mph - N/A   Clear
5:53 PM 82.9 °F -11.0 °F 4% 29.73 in 10.0 mi SSE 8.1 mph - N/A   Clear
6:53 PM 82.9 °F -15.0 °F 4% 29.73 in 10.0 mi West 18.4 mph - N/A   Clear
7:53 PM 75.9 °F -7.1 °F 4% 29.77 in 10.0 mi West 12.7 mph - N/A   Clear
8:53 PM 73.0 °F -11.0 °F 4% 29.81 in 10.0 mi WSW 11.5 mph - N/A   Clear
9:53 PM 68.0 °F -9.9 °F 4% 29.84 in 10.0 mi WNW 4.6 mph - N/A   Clear
10:53 PM 68.0 °F -9.0 °F 4% 29.85 in 10.0 mi Calm Calm - N/A   Clear
11:53 PM 68.0 °F -9.9 °F 4% 29.84 in 10.0 mi NW 6.9 mph - N/A   Clear